www.pogodaiklimat.ru

Погода и климат >> Архив погоды >> Пакистан >> Пад Идан


ПОГОДА в Пад Идан

  • Прогноз погоды в Пад Идан
  • Монитор погоды в Пад Идан

АРХИВ ПОГОДЫ в Пад Идан

Время (UTC), дата Ветер
(напр.,м/с)
 
Видим.   Явления Облачность Т
(С)
Тd
(С)
f
(%)
Тe
(С)
Тes
(С)
Комфортность P
(гПа)
Po
(гПа)
Тmin
(С)
Tmax
(С)
R
(мм)
R24
(мм)
S
(см)
06 17.01 СЗ 1 4000 м ясно +16.0 +10.9 72 +17 +29 опасность
простуды
1020.9 1000.0
09 17.01 СЗ 1 4000 м ясно +20.5 +11.6 57 +24 +35 комфорт 1018.8 1000.0
12 17.01 СЗ 1 4000 м ясно +21.0 +10.9 52 +24 +25 комфорт 1016.6 1011.1 +22.5
15 17.01 СЗ 1 4000 м ясно +17.5 +10.0 61 +19 +19 1016.2 1000.0
18 17.01 С 1 4000 м ясно +14.0 +8.0 67 +15 +15 1019.1 1013.4
21 17.01 С 1 4000 м ясно +11.0 +7.9 81 +12 +12 1018.4 1000.0
00 18.01 С 1 1000 м ясно +8.5 +6.3 86 +9 +9 1017.7 1011.9
03 18.01 С 1 1000 м ясно +9.0 +5.7 80 +9 +10 1018.7 1013.0 +7.1
06 18.01 СЗ 1 4000 м ясно +16.5 +9.9 65 +18 +29 1020.0 1000.0
09 18.01 СЗ 1 4000 м ясно +21.0 +11.1 53 +25 +36 комфорт 1017.4 1000.0
12 18.01 СЗ 1 2000 м мгла ясно +21.5 +9.5 46 +23 +24 комфорт 1013.6 1008.3 +23.1
15 18.01 С 1 2000 м мгла ясно +19.0 +9.6 54 +21 +21 комфорт 1014.4 1000.0
18 18.01 штиль 0 2000 м мгла ясно +15.0 +8.1 63 +15 +15 1015.9 1000.0
21 18.01 штиль 0 2000 м мгла ясно +13.0 +9.1 77 +13 +13 1015.3 1000.0
00 19.01 штиль 0 2000 м мгла ясно +11.0 +7.9 81 +10 +10 1014.8 1009.3
03 19.01 СЗ 1 1000 м мгла 3/0
[Ci fib]
+10.0 +9.0 93 +10 +11 1016.9 1011.4 +8.5
06 19.01 штиль 0 4000 м 3/0
[Ci fib]
+16.5 +9.9 65 +16 +28 опасность
простуды
1019.3 1013.7
09 19.01 штиль 0 4000 м 3/0
[Ci fib]
+20.5 +9.3 49 +22 +33 комфорт 1017.8 1000.0
12 19.01 С 1 4000 м 3/0
[Ci fib]
+20.0 +9.8 52 +23 +24 комфорт 1015.3 1000.0 +21.1
15 19.01 С 1 4000 м 3/0
[Ci fib]
+17.0 +10.5 66 +19 +19 1017.2 1000.0
18 19.01 С 1 4000 м 3/0
[Ci fib]
+14.5 +9.7 73 +16 +16 1018.2 1012.6
21 19.01 штиль 0 4000 м 3/0
[Ci fib]
+12.0 +9.0 82 +11 +11 1017.6 1000.0
00 20.01 штиль 0 1000 м 3/0
[Ci fib]
+8.5 +7.4 93 +8 +8 1017.0 1000.0
03 20.01 штиль 0 1000 м 3/0
[Ci fib]
+9.0 +6.3 83 +8 +9 1018.1 1000.0 +7.5
06 20.01 СЗ 1 4000 м 3/0
[Ci fib]
+17.0 +11.5 70 +19 +29 1019.0 1000.0
09 20.01 СЗ 1 4000 м 5/0
[Ac trans]
+20.0 +12.0 60 +23 +31 комфорт 1016.6 1000.0
12 20.01 С 1 4000 м 10/5 300 м
[Sc Ac trans]
+18.5 +12.3 67 +21 +21 комфорт 1013.0 1007.6 +21.1
15 20.01 С 1 4000 м 10/5 300 м
[Sc Ac trans]
+15.5 +10.8 74 +17 +17 1014.3 1000.0
18 20.01 С 1 1000 м в посл. час дождь 9/5 300 м
[Sc Ac trans]
+13.0 +11.1 88 +14 +14 1015.8 1010.1 2
21 20.01 С 1 1000 м 9/5 300 м
[Sc Ac trans]
+11.0 +9.0 87 +12 +12 1014.6 1000.0
00 21.01 С 1 1000 м слаб. дождь 9/5 300 м
[Sc Ac trans]
+11.0 +9.0 87 +12 +12 1014.3 1008.6 15
03 21.01 С 1 1000 м 9/5 300 м
[Sc Ac trans]
+11.5 +9.5 88 +12 +12 1016.1 1000.0 +9.1
06 21.01 СЗ 1 4000 м 4/0
[Ac trans]
+15.0 +13.2 89 +15 +23 1018.1 1018.0
09 21.01 СЗ 1 4000 м ясно +18.5 +13.2 71 +21 +32 комфорт 1016.1 1000.0
12 21.01 штиль 0 4000 м ясно +18.5 +12.3 67 +19 +20 1010.8 1005.5 +20.1
15 21.01 штиль 0 4000 м ясно +15.0 +12.3 84 +15 +15 1012.4 1012.0
18 21.01 штиль 0 1000 м дымка ясно +13.5 +10.6 83 +13 +13 1013.0 1000.0
21 21.01 штиль 0 1000 м дымка ясно +12.5 +10.6 88 +12 +12 1012.4 1000.0
00 22.01 штиль 0 1000 м дымка ясно +9.5 +8.5 93 +9 +9 1012.4 1006.9
03 22.01 СЗ 1 <100 м туман ясно +9.0 +8.0 93 +9 +10 1014.0 1008.5 +7.5
06 22.01 СЗ 1 4000 м ясно +16.0 +10.4 69 +17 +29 опасность
простуды
1016.0 1000.0
09 22.01 СЗ 1 4000 м 3/0
[Ci fib]
+20.5 +11.6 57 +24 +34 комфорт 1013.1 1000.0
12 22.01 Ю 1 4000 м ясно +20.0 +12.0 60 +23 +24 комфорт 1012.4 1007.1 +21.5
15 22.01 Ю 1 4000 м ясно +16.5 +10.9 69 +18 +18 1013.4 1000.0
18 22.01 штиль 0 4000 м ясно +12.0 +7.9 76 +12 +12 1015.7 1000.0
21 22.01 штиль 0 4000 м ясно +10.5 +7.4 81 +10 +10 1014.9 1000.0
00 23.01 штиль 0 1000 м ясно +7.0 +4.7 85 +6 +6 1014.9 1009.4
03 23.01 штиль 0 200 м туман ясно +7.5 +6.4 93 +7 +8 1017.7 1012.2 +6.1
06 23.01 СЗ 1 4000 м ясно +15.0 +12.3 84 +16 +27 1019.9 1000.0
09 23.01 штиль 0 4000 м ясно +19.0 +13.8 72 +20 +32 1017.6 1000.0
12 23.01 С 1 4000 м ясно +18.5 +9.0 54 +20 +21 1016.9 1011.3 +20.5
15 23.01 С 1 4000 м ясно +16.0 +8.1 59 +17 +17 1018.3 1018.0
18 23.01 С 1 4000 м ясно +12.0 +6.8 70 +13 +13 1020.1 1000.0
21 23.01 штиль 0 1000 м ясно +9.5 +6.3 80 +9 +9 1019.4 1000.0
00 24.01 штиль 0 1000 м ясно +6.5 +4.2 85 +6 +6 1018.4 1012.6
03 24.01 штиль 0 1000 м ясно +7.0 +3.5 78 +6 +7 1020.2 1014.4 +5.1

 

Местоположение метеостанции Пад Идан (Пакистан): широта 26.85 долгота 68.13 высота над уровнем моря 47 м.

В архиве по умолчанию представлена погода в Пад Идан за последнюю неделю. Архивные данные за месяц целиком и за предыдущие месяцы, начиная с января 2011 года, Вы можете получить, выбрав интересующий диапазон дат из раскрывающегося списка и нажав кнопку "Ввод!".


*Определитесь, кто Вы:
робот инопланетянин человек

Внимание! Время в таблицах - всемирное. Для получения местного времени необходимо прибавить поправку, которая равна 5 ч.

Смотрите также архив погоды в соседних городах и на ближайших метеорологических станциях:

Погода в Навабшахе (Пакистан) (71 км)
Погода в Рохри (Пакистан) (119 км)
Погода в Джейкобабаде (Пакистан) (165 км)
Погода в Хайдарабате (Пакистан) (166 км)
Погода в Хуздаре (Пакистан) (184 км)
Погода в Сакранде (Пакистан) (192 км)
Погода в Чоре (Пакистан) (221 км)
Погода в Карачи (Пакистан) (239 км)
Погода в Бадине (Пакистан) (259 км)
Погода в Джайсалмере (Раджастхан, Индия) (277 км)

Пояснения к столбцам:

Ветер - указаны скорость ветра в м/с - средняя за 10 мин, порывы в срок и между сроками (в фигурных скобках) и направление, откуда дует ветер: С - северный, СВ - северо-восточный, В - восточный, ЮВ - юго-восточный, Ю - южный, ЮЗ - юго-западный, З - западный, СЗ - северо-западный.
Видимость - горизонтальная дальность видимости в метрах или километрах. При видимости от 1 до 10 км при отсутствии осадков обычно наблюдается дымка, при ухудшении видимости до 1 км и менее - туман. В сухую погоду видимость может ухудшаться дымом, пылью или мглою.
Явления - указаны атмосферные явления, наблюдавшиеся в срок или в последний час перед сроком; фигурными скобками обозначены явления, наблюдавшиеся между сроками (за 1-3 часа до срока); квадратными скобками обозначены град или гололедные отложения с указанием их диаметра в мм.
Облачность - указаны через наклонную черту общая и нижняя облачность в баллах и высота нижней границы облаков в метрах; квадратными скобками обозначены формы облаков: Ci - перистые, Cs - перисто-слоистые, Cc - перисто-кучевые, Ac - высококучевые, As - высокослоистые, Sc - слоисто-кучевые, Ns - слоисто-дождевые, Cu - кучевые, Cb - кучево-дождевые. Подробнее классификацию облаков см. в Атласе облаков (PDF).
T - Температура воздуха - температура, измеренная на высоте 2 м над землей.
Td - Температура точки росы - температура, при понижении до которой содержащийся в воздухе водяной пар достигнет насыщения.
f - Относительная влажность воздуха - влажноcть воздуха, измеренная на высоте 2 м над землей.
Te - Эффективная температура - температура, которую ощущает одетый по сезону человек в тени. Характеристика душности погоды. При расчете учитывается влияние влажности воздуха и скорости ветра на теплоощущения человека.
Tes - Эффективная температура на солнце - температура, которую ощущает человек, с поправкой на солнечный нагрев. Характеристика знойности погоды. Зависит от высоты солнца над горизонтом, облачности и скорости ветра. Ночью, в пасмурную погоду, а также при ветре 12 м/с и более поправка равна нулю.
P - Атмосферное давление - приведенное к уровню моря атмосферное давление.
Po - Атмосферное давление - измеренное на уровне метеостанции атмосферное давление.
Tmin - Минимальная температура - минимум температуры воздуха на высоте 2 м над землей.
Tmax - Максимальная температура - максимум температуры воздуха на высоте 2 м над землей.
R - Количество осадков - Количество выпавших осадков за период времени, мм. При наведении курсора мыши на число - период времени, за который выпало указанное количество осадков.
R24 - Количество осадков - Количество выпавших осадков за 24 часа, мм.
S - Снежный покров - Высота снежного покрова, см. При наведении курсора мыши на число - состояние снежного покрова и степень покрытия местности в баллах.